When you browse on this site, cookies collect data to enhance your experience and personalize the content and advertising you see.
Visit our Privacy Policy to learn more. By continuing to use the site, you agree to this use of cookies and data.
  • In United Kingdom
  • List of Countries
  • For 7 days
  • Water Temperature
  • Satellite Maps
  • Weather Map
  • Weather Widgets
  • user-avatar
    Login

    Hourly Weather Cepeleutsi

    Today, 19 November, Monday

    Time Temperature Precipitation Wind Pressure Humidity
    00:00 +1°C° 0 mm 1 mps 746 mmHg 72%
    01:00 +1°C° 0 mm 1 mps 746 mmHg 71%
    02:00 +1°C° 0 mm 1 mps 746 mmHg 71%
    03:00 -1°C° 0 mm 2 mps 746 mmHg 72%
    04:00 -1°C° 0 mm 2 mps 746 mmHg 72%
    05:00 -1°C° 0 mm 2 mps 746 mmHg 72%
    06:00 -1°C° 0.2 mm 3 mps 746 mmHg 75%
    07:00 -1°C° 0.2 mm 3 mps 745 mmHg 77%
    08:00 -3°C° 0.2 mm 4 mps 745 mmHg 80%
    09:00 -3°C° 0.4 mm 4 mps 745 mmHg 81%
    10:00 -2°C° 0.4 mm 4 mps 745 mmHg 82%
    11:00 -2°C° 0.4 mm 4 mps 745 mmHg 84%
    12:00 -2°C° 0.4 mm 4 mps 745 mmHg 83%
    13:00 -1°C° 0.4 mm 4 mps 745 mmHg 82%
    14:00 -1°C° 0.4 mm 5 mps 745 mmHg 81%
    15:00 -1°C° 0.9 mm 4 mps 745 mmHg 83%
    16:00 -1°C° 0.9 mm 4 mps 745 mmHg 84%
    17:00 -2°C° 0.9 mm 4 mps 745 mmHg 86%
    18:00 -2°C° 0.5 mm 4 mps 745 mmHg 87%
    19:00 -2°C° 0.5 mm 4 mps 746 mmHg 88%
    20:00 -4°C° 0.5 mm 5 mps 746 mmHg 89%
    21:00 -3°C° 0.3 mm 4 mps 746 mmHg 89%
    22:00 -3°C° 0.3 mm 4 mps 746 mmHg 89%
    23:00 -3°C° 0.3 mm 4 mps 746 mmHg 90%

    Tomorrow, 20 November, Tuesday

    Time Temperature Precipitation Wind Pressure Humidity
    00:00 -3°C° 0 mm 4 mps 747 mmHg 90%
    01:00 -2°C° 0 mm 3 mps 747 mmHg 90%
    02:00 -2°C° 0 mm 3 mps 747 mmHg 89%
    03:00 -4°C° 0 mm 3 mps 747 mmHg 90%
    04:00 -4°C° 0 mm 3 mps 747 mmHg 90%
    05:00 -4°C° 0 mm 3 mps 747 mmHg 90%
    06:00 -4°C° 0 mm 3 mps 747 mmHg 90%
    07:00 -3°C° 0 mm 2 mps 748 mmHg 89%
    08:00 -3°C° 0 mm 2 mps 748 mmHg 89%
    09:00 -3°C° 0 mm 2 mps 748 mmHg 87%
    10:00 -2°C° 0 mm 3 mps 748 mmHg 85%
    11:00 -1°C° 0 mm 3 mps 748 mmHg 83%
    12:00 -1°C° 0 mm 3 mps 748 mmHg 83%
    13:00 -1°C° 0 mm 3 mps 748 mmHg 83%
    14:00 +1°C° 0 mm 2 mps 747 mmHg 82%
    15:00 -1°C° 0 mm 2 mps 747 mmHg 84%
    16:00 -2°C° 0 mm 2 mps 747 mmHg 85%
    17:00 -2°C° 0 mm 2 mps 748 mmHg 87%
    18:00 -2°C° 0 mm 2 mps 748 mmHg 88%
    19:00 -3°C° 0 mm 2 mps 748 mmHg 89%
    20:00 -4°C° 0 mm 3 mps 748 mmHg 90%
    21:00 -4°C° 0 mm 3 mps 748 mmHg 91%
    22:00 -4°C° 0 mm 3 mps 748 mmHg 91%
    23:00 -4°C° 0 mm 3 mps 748 mmHg 92%

    Day after tomorrow, 21 November, Wednesday

    Time Temperature Precipitation Wind Pressure Humidity
    00:00 -5°C° 0 mm 3 mps 748 mmHg 92%
    01:00 -5°C° 0 mm 3 mps 748 mmHg 92%
    02:00 -5°C° 0 mm 3 mps 748 mmHg 92%
    03:00 -5°C° 0 mm 3 mps 747 mmHg 92%
    04:00 -5°C° 0 mm 3 mps 747 mmHg 92%
    05:00 -5°C° 0 mm 3 mps 747 mmHg 92%
    06:00 -5°C° 0 mm 3 mps 747 mmHg 92%
    07:00 -5°C° 0 mm 3 mps 748 mmHg 92%
    08:00 -5°C° 0 mm 3 mps 748 mmHg 92%
    09:00 -5°C° 0 mm 3 mps 748 mmHg 89%
    10:00 -4°C° 0 mm 3 mps 748 mmHg 87%
    11:00 -2°C° 0 mm 3 mps 748 mmHg 84%
    12:00 -2°C° 0 mm 3 mps 748 mmHg 83%
    13:00 -1°C° 0 mm 3 mps 748 mmHg 82%
    14:00 -1°C° 0 mm 3 mps 748 mmHg 81%
    15:00 -1°C° 0 mm 2 mps 748 mmHg 83%
    16:00 -2°C° 0 mm 2 mps 748 mmHg 86%
    17:00 -3°C° 0 mm 2 mps 748 mmHg 88%
    18:00 -3°C° 0 mm 2 mps 749 mmHg 89%
    19:00 -3°C° 0 mm 2 mps 749 mmHg 90%
    20:00 -4°C° 0 mm 2 mps 749 mmHg 91%
    21:00 -4°C° 0 mm 2 mps 749 mmHg 92%
    22:00 -4°C° 0 mm 2 mps 750 mmHg 92%
    23:00 -5°C° 0 mm 2 mps 750 mmHg 93%

    22 November, Thursday

    Time Temperature Precipitation Wind Pressure Humidity
    00:00 -3°C° 0 mm 1 mps 750 mmHg 92%
    01:00 -3°C° 0 mm 1 mps 750 mmHg 92%
    02:00 -3°C° 0 mm 1 mps 750 mmHg 92%
    03:00 -3°C° 0 mm 1 mps 750 mmHg 92%
    04:00 -3°C° 0 mm 1 mps 750 mmHg 92%
    05:00 -3°C° 0 mm 1 mps 750 mmHg 92%
    06:00 -3°C° 0 mm 1 mps 750 mmHg 92%
    07:00 -3°C° 0 mm 1 mps 750 mmHg 92%
    08:00 -3°C° 0 mm 1 mps 750 mmHg 92%
    09:00 -2°C° 0 mm 1 mps 751 mmHg 88%
    10:00 -1°C° 0 mm 1 mps 751 mmHg 84%
    11:00 0°C° 0 mm 1 mps 751 mmHg 80%
    12:00 0°C° 0 mm 1 mps 751 mmHg 78%
    13:00 +1°C° 0 mm 1 mps 750 mmHg 77%
    14:00 +1°C° 0 mm 1 mps 750 mmHg 75%
    15:00 0°C° 0 mm 1 mps 750 mmHg 78%
    16:00 -1°C° 0 mm 1 mps 750 mmHg 80%
    17:00 -1°C° 0 mm 1 mps 750 mmHg 83%
    18:00 -2°C° 0 mm 1 mps 751 mmHg 83%
    19:00 -2°C° 0 mm 1 mps 751 mmHg 84%
    20:00 -2°C° 0 mm 1 mps 751 mmHg 85%
    21:00 -2°C° 0 mm 1 mps 751 mmHg 85%
    22:00 -2°C° 0 mm 1 mps 752 mmHg 85%
    23:00 -3°C° 0 mm 1 mps 752 mmHg 86%

    23 November, Friday

    Time Temperature Precipitation Wind Pressure Humidity
    00:00 -3°C° 0 mm 1 mps 752 mmHg 86%
    01:00 -3°C° 0 mm 1 mps 752 mmHg 86%
    02:00 -3°C° 0 mm 1 mps 752 mmHg 85%
    03:00 -3°C° 0 mm 1 mps 752 mmHg 85%
    04:00 -3°C° 0 mm 1 mps 752 mmHg 85%
    05:00 -3°C° 0 mm 1 mps 753 mmHg 85%
    06:00 -3°C° 0 mm 1 mps 753 mmHg 85%
    07:00 -3°C° 0 mm 1 mps 753 mmHg 85%
    08:00 -3°C° 0 mm 1 mps 753 mmHg 85%
    09:00 -2°C° 0 mm 1 mps 754 mmHg 81%
    10:00 -1°C° 0 mm 1 mps 754 mmHg 76%
    11:00 0°C° 0 mm 1 mps 754 mmHg 72%
    12:00 0°C° 0 mm 1 mps 754 mmHg 71%
    13:00 +1°C° 0 mm 1 mps 754 mmHg 70%
    14:00 +1°C° 0 mm 1 mps 754 mmHg 69%
    15:00 -1°C° 0 mm 0 mps 754 mmHg 71%
    16:00 -2°C° 0 mm 0 mps 754 mmHg 74%
    17:00 -3°C° 0 mm 0 mps 754 mmHg 76%
    18:00 -3°C° 0 mm 0 mps 754 mmHg 77%
    19:00 -3°C° 0 mm 0 mps 755 mmHg 78%
    20:00 -2°C° 0 mm 1 mps 755 mmHg 79%
    21:00 -2°C° 0 mm 1 mps 755 mmHg 80%
    22:00 -3°C° 0 mm 1 mps 755 mmHg 82%
    23:00 -3°C° 0 mm 1 mps 755 mmHg 83%

    24 November, Saturday

    Time Temperature Precipitation Wind Pressure Humidity
    00:00 -3°C° 0 mm 1 mps 755 mmHg 84%
    01:00 -5°C° 0 mm 2 mps 755 mmHg 86%
    02:00 -6°C° 0 mm 2 mps 754 mmHg 88%
    03:00 -6°C° 0 mm 2 mps 754 mmHg 88%
    04:00 -6°C° 0 mm 2 mps 754 mmHg 89%
    05:00 -6°C° 0 mm 2 mps 754 mmHg 90%
    06:00 -7°C° 0 mm 2 mps 754 mmHg 90%
    07:00 -7°C° 0 mm 2 mps 753 mmHg 90%
    08:00 -7°C° 0 mm 2 mps 753 mmHg 90%
    09:00 -6°C° 0 mm 2 mps 753 mmHg 86%
    10:00 -5°C° 0 mm 2 mps 753 mmHg 81%
    11:00 -4°C° 0 mm 2 mps 753 mmHg 77%
    12:00 -3°C° 0 mm 2 mps 752 mmHg 76%
    13:00 -3°C° 0 mm 2 mps 752 mmHg 75%
    14:00 -3°C° 0 mm 2 mps 751 mmHg 74%
    15:00 -3°C° 0 mm 2 mps 751 mmHg 77%
    16:00 -4°C° 0 mm 2 mps 751 mmHg 80%
    17:00 -5°C° 0 mm 2 mps 751 mmHg 83%
    18:00 -5°C° 0 mm 2 mps 751 mmHg 83%
    19:00 -5°C° 0 mm 2 mps 750 mmHg 83%
    20:00 -6°C° 0 mm 2 mps 750 mmHg 83%
    21:00 -6°C° 0 mm 2 mps 750 mmHg 83%
    22:00 -6°C° 0 mm 2 mps 750 mmHg 82%
    23:00 -6°C° 0 mm 2 mps 750 mmHg 82%
    Show more